Tracking 26544 objects as of 9-Dec-2022
HD Live streaming from Space Station
objects crossing your sky now

YARILO-2

Track YARILO-2 now!
10-day predictions
YARILO-2 is classified as:


NORAD ID: 46491
Int'l Code: 2020-068F
Perigee: 536.5 km
Apogee: 563.2 km
Inclination: 97.7 °
Period: 95.5 minutes
Semi major axis: 6920 km
RCS: Unknown
Launch date: September 28, 2020
Source: (UNK)
Launch site: PLESETSK MISSILE AND SPACE COMPLEX (PKMTR)

Uplink (MHz):
Downlink (MHz): 435.550
Beacon (MHz):
Mode:
Call sign:
Status: Active

aabbcc
Your satellite tracking list
Your tracking list is empty




NASA's NSSDC Master Catalog

Two Line Element Set (TLE):
1 46491U 20068F   22342.58197485  .00007749  00000-0  50739-3 0  9994
2 46491  97.7431 285.1795 0019316  50.2273 310.0889 15.07869659120461
Source of the keplerian elements: AFSPC